Miscellaneous Local Product
Issued by NWS Hastings, NE

Home | Current Version | Previous Version | Graphics & Text | Print | Product List | Glossary On
Versions: 1 2 3 4 5 6 7 8 9 10 11 12 13 14 15 16 17 18 19 20 21 22 23 24 25 26 27 28 29 30 31 32 33 34 35 36 37 38 39 40 41 42 43 44 45 46 47 48 49 50
607
AXUS43 KGID 230702
MISGRI

GID CWA HOURLY WEATHER ROUNDUP
NATIONAL WEATHER SERVICE HASTINGS NE
100 AM CST THU NOV 23 2017

NOTE: "FAIR" INDICATES FEW OR NO CLOUDS BELOW 12,000 FEET WITH NO
SIGNIFICANT WEATHER AND/OR OBSTRUCTIONS TO VISIBILITY.

...SOUTH CENTRAL NEBRASKA...

CITY           SKY/WX    TMP DP  RH WIND       PRES   REMARKS
GRAND ISLAND   CLEAR     41  33  73 W10       30.04S
KEARNEY        CLEAR     41  34  76 NW8       30.06S
HASTINGS       CLEAR     41  30  65 W9        30.04F
ORD            CLEAR     35  30  82 NW3       30.03F
YORK           CLEAR     39  28  65 W12       30.01F WCI  32
AURORA         CLEAR     39  29  68 W7        30.02S WCI  34
LEXINGTON      CLEAR     36  32  86 W7        30.08F WCI  30
HOLDREGE       CLEAR     42  34  73 NW9       30.07S
HEBRON         CLEAR     40  23  50 W8        30.03F WCI  35

...NEBRASKA PANHANDLE...

CITY           SKY/WX    TMP DP  RH WIND       PRES   REMARKS
CHADRON        CLEAR     39  36  89 S5        30.12S
ALLIANCE       CLEAR     36  34  92 W6        30.15F WCI  31
SCOTTSBLUFF    CLOUDY    39  34  82 NW7       30.18S WCI  34
SIDNEY         CLOUDY    48  39  71 NW13      30.19S

...WESTERN AND NORTH CENTRAL NEBRASKA...

CITY           SKY/WX    TMP DP  RH WIND       PRES   REMARKS
VALENTINE      CLEAR     39  35  86 SW7       30.05F WCI  34
AINSWORTH      CLEAR     42  37  81 W8        30.05F
ONEILL         CLEAR     42  37  79 W6        30.02F
BROKEN BOW     CLEAR     46  35  65 CALM      30.06F
IMPERIAL       CLOUDY    46  39  76 NW12      30.14R
NORTH PLATTE   CLEAR     33  31  92 W5        30.11S WCI  29
MCCOOK         CLOUDY    42  36  79 W7        30.09F

...EASTERN NEBRASKA...

CITY           SKY/WX    TMP DP  RH WIND       PRES   REMARKS
NORFOLK        CLEAR     34  28  79 W5        29.99R WCI  30
SO SIOUX CITY  CLEAR     28  20  71 E8        29.97S WCI  20
TEKAMAH        CLEAR     32  20  61 SE12      29.98F WCI  23
COLUMBUS       CLEAR     39  27  62 W9        30.00F WCI  33
ALBION         CLEAR     37  31  79 NW3       30.02R
OMAHA EPPLEY   CLEAR     31  20  63 SE9       30.00F WCI  23
OFFUTT AFB     CLEAR     28  20  72 SE3       30.00F
MILLARD        CLEAR     33  22  64 SE3       30.00F
LINCOLN        CLEAR     36  22  56 CALM      30.03F
NEBRASKA CITY  CLEAR     31  22  71 SW6       30.01F WCI  25
BEATRICE       CLEAR     36  23  58 S6        30.03S WCI  31
FALLS CITY     CLEAR     33  21  61 S6        30.04F WCI  28

...NORTHERN KANSAS...

CITY           SKY/WX    TMP DP  RH WIND       PRES   REMARKS
GOODLAND       CLOUDY    44  37  76 W7        30.16R
HILL CITY      CLOUDY    44  36  73 W10       30.10R
NORTON         SUNNY     37  28  70 SW8       30.08S WCI  31
PHILLIPSBURG   CLEAR     34  28  80 W8        30.07F WCI  27
SMITH CENTER   CLEAR     36  25  64 NW3       30.07F
HAYS           CLEAR     37  30  75 W5        30.08S WCI  33
RUSSELL        CLEAR     38  24  57 S12       30.06F WCI  30
CONCORDIA      CLEAR     43  22  43 SW15G24   30.04F
SALINA         CLEAR     40  22  48 S8        30.09F WCI  34
TOPEKA         CLOUDY    37  21  52 CALM      30.09F



USA.gov is the U.S. government's official web portal to all federal, state and local government web resources and services.